Regional Weather Roundup
Issued by NWS

Home | Current Version | Previous Version | Graphics & Text | Print | Product List | Glossary On
Versions: 1 2 3 4 5 6 7 8 9 10 11 12 13 14 15 16 17 18 19 20 21 22 23 24 25 26 27 28 29 30 31 32 33 34 35 36 37 38 39 40 41 42 43 44 45 46 47 48 49 50
569
ASUS43 KOAX 271302
RWRNE

WEATHER ROUNDUP FOR NEBRASKA
NATIONAL WEATHER SERVICE OMAHA NE
800 AM CDT MON MAR 27 2017

NOTES: SATELLITE DATA IS BEING USED TO AUGMENT CLOUD COVER ABOVE
       12000 FEET.
       "FAIR" INDICATES FEW OR NO CLOUDS BELOW 12,000 FEET WITH NO
       SIGNIFICANT WEATHER AND/OR OBSTRUCTIONS TO VISIBILITY.

  * THESE STATIONS DO NOT REPORT WEATHER SUCH AS RAIN...SNOW OR FOG.

NEZ001>004-019>022-054>056-271400-
NEBRASKA PANHANDLE

CITY           SKY/WX    TMP DP  RH WIND       PRES   REMARKS
SCOTTSBLUFF    FOG       26  24  92 E5        29.91S VSB 1/2 WCI  20
ALLIANCE       FOG       23  22  96 CALM      29.90S VSB 1/2
CHADRON        FOG       27  25  92 CALM      29.89F VSB 1/4
KIMBALL        CLEAR     29  29  99 SW7       29.92S WCI  22
SIDNEY         CLEAR     24  21  88 W7        29.92S WCI  16
$$

NEZ057>060-069>072-079>082-271400-
SOUTHWEST NEBRASKA

CITY           SKY/WX    TMP DP  RH WIND       PRES   REMARKS
NORTH PLATTE   FOG       36  34  92 E3        29.94R VSB<1/4
IMPERIAL       CLEAR     34  31  88 W5        29.94R WCI  30
LEXINGTON      FOG       40  39  95 S3        29.96R VSB<1/4
MCCOOK         FOG       30  30 100 CALM      29.94S VSB 1/4
OGALLALA       CLEAR     32  31  96 CALM      29.93S
$$

NEZ005>010-023>029-035>040-094-271400-
NORTH CENTRAL NEBRASKA

CITY           SKY/WX    TMP DP  RH WIND       PRES   REMARKS
VALENTINE      FOG       33  30  88 CALM      29.95R VSB 1
AINSWORTH      MOCLDY    35  35 100 N3        29.95R
BROKEN BOW     CLOUDY    42  32  67 SE3       29.94S
O`NEILL        CLOUDY    38  37  98 CALM      29.96S
ORD            CLOUDY    42  39  89 CALM      29.95R
THEDFORD       FOG       39  39  99 CALM      29.95R VSB<1/4
$$

NEZ041-046>049-061>064-073>077-083>087-271400-
SOUTH CENTRAL NEBRASKA

CITY           SKY/WX    TMP DP  RH WIND       PRES   REMARKS
GRAND ISLAND   CLOUDY    42  42 100 N5        29.97R FOG
AURORA         CLOUDY    42  42 100 NE6       29.96R FOG
HASTINGS       CLOUDY    43  42  97 NE8       29.97R FOG
HEBRON         CLOUDY    44  43  96 N3        29.95R
HOLDREGE       FOG       38  38  97 CALM      29.95R VSB<1/4
KEARNEY *      CLOUDY    43  39  87 NE3       29.96S VSB 3/4
YORK           CLOUDY    41  41 100 NE5       29.96S
$$

NEZ011>018-030>034-042>045-271400-
NORTHEAST NEBRASKA

CITY           SKY/WX    TMP DP  RH WIND       PRES   REMARKS
NORFOLK        CLOUDY    42  40  92 CALM      29.96R FOG
ALBION         CLOUDY    44  41  88 CALM      29.96S
BLAIR          CLOUDY    43  41  91 N6        29.94R
FREMONT        CLOUDY    43  42  96 CALM      29.96R
TEKAMAH        CLOUDY    43  40  89 N5        29.95S
WAYNE          CLOUDY    41  41  99 CALM      29.96R
$$

NEZ050>053-065>068-078-088>093-271400-
SOUTHEAST NEBRASKA

CITY           SKY/WX    TMP DP  RH WIND       PRES   REMARKS
LINCOLN        CLOUDY    44  41  89 N8        29.97R
OMAHA EPPLEY   CLOUDY    45  38  76 N5        29.95R
BEATRICE       CLOUDY    45  44  97 N6        29.95R FOG
FALLS CITY     CLOUDY    46  43  89 NE7       29.90F
NEBRASKA CITY  CLOUDY    44  43  98 NE7       29.93R
PLATTSMOUTH    CLOUDY    44  40  86 N6        29.94R
$$

NEZ044-045-051>053-067-271400-
OMAHA AREA

CITY           SKY/WX    TMP DP  RH WIND       PRES   REMARKS
OMAHA EPPLEY   CLOUDY    45  38  76 N5        29.95R
BLAIR          CLOUDY    43  41  91 N6        29.94R
FREMONT        CLOUDY    43  42  96 CALM      29.96R
MILLARD        CLOUDY    46  42  84 NE3       29.95R
OFFUTT AFB     CLOUDY    44  40  84 N7        29.94R
PLATTSMOUTH    CLOUDY    44  40  86 N6        29.94R
WAHOO          CLOUDY    43  41  93 NE3       29.95S
$$




USA.gov is the U.S. government's official web portal to all federal, state and local government web resources and services.